Location: Armstrong
(40.9123°N, 82.0110°W)
Time: 14:05:57
(UTC+00:00)

Daily predictions for brighter satellites

Satellite Brightness Start Highest point End
(mag) Time Altitude Azimuth Time Altitude Azimuth Time Altitude Azimuth
Radarsat Rocket 4.3 22:49:45 10° S 22:55:49 75° WSW 23:01:39 10° NNW
Timation 2 Rocket 4.2 22:49:11 10° NNW 22:55:52 73° ENE 23:02:42 10° SSE
Meteor 2-10 Rocket 4.5 22:53:01 10° SE 22:57:16 25° E 23:01:26 10° NE
Okean-O 4.0 22:54:33 10° ESE 22:57:31 18° ENE 23:00:29 10° NNE
SMAP 3.2 22:56:49 10° SSE 23:01:28 85° WSW 23:06:09 10° NNW
Cosmos 1553 Rocket 4.4 22:56:03 10° SSE 23:01:57 42° E 23:07:48 10° NNE
Cosmos 1408 4.2 23:00:35 10° NE 23:02:49 15° ENE 23:05:03 10° ESE
Cosmos 1689 Rocket 3.3 23:00:49 10° NE 23:03:07 21° E 23:05:25 10° SSE
FengYun 1-2 T 4.3 22:58:03 10° SSE 23:03:38 64° ENE 23:09:12 10° N
H-2A R/B 3.7 23:02:16 10° E 23:05:21 16° ENE 23:08:26 10° NNE
AQUARIUS 4.3 23:02:43 10° SSE 23:07:12 84° W 23:11:44 10° NNW
Cosmos 1953 Rocket 3.6 23:05:11 10° N 23:09:38 85° ENE 23:14:06 10° S
Cosmos 44 Rocket 4.3 23:08:26 10° SSE 23:12:20 26° ESE 23:16:15 10° NE
Cosmos 2058 Rocket 3.1 23:09:26 10° S 23:13:53 73° E 23:18:23 10° NNE
Lacrosse 5 4.0 23:11:49 10° NNW 23:14:00 13° N 23:16:10 10° NNE
Cosmos 2219 3.2 23:12:38 10° NNW 23:18:25 73° ENE 23:24:09 10° SSE
Meteor 2-16 Rocket 4.5 23:12:25 10° N 23:18:33 89° E 23:24:39 10° S
Cosmos 1892 3.1 23:18:00 10° N 23:21:42 40° ENE 23:25:21 10° SSE
Cosmos 1939 Rocket 3.0 23:19:22 10° SSE 23:23:11 50° ENE 23:26:59 10° N
SL-08 R/B 4.5 23:18:23 10° N 23:24:26 58° E 23:30:25 10° SSE
Cosmos 968 Rocket 3.6 23:20:10 10° N 23:25:16 52° ENE 23:30:17 10° SE
Cosmos 1656 3.7 23:19:48 10° SSW 23:25:21 85° WNW 23:31:02 10° NNE
Cosmos 2082 4.3 23:20:06 10° N 23:25:23 36° ENE 23:30:37 10° SE
CZ-4B R/B 2.4 23:24:34 10° N 23:27:38 46° WNW 23:30:37 10° SSW
SAR-Lupe-4 3.5 23:24:43 10° NNE 23:28:19 88° ESE 23:31:54 10° SSW
Cosmos 1300 4.3 23:25:16 10° SSW 23:28:49 38° WNW 23:32:25 10° N
Aureole 3 Rocket 3.3 23:25:37 10° S 23:29:33 84° W 23:35:04 10° N
Cosmos 1745 Rocket 4.2 23:25:12 10° N 23:31:17 47° ENE 23:37:22 10° SSE
NOSS 3-3 (A) 3.8 23:25:42 10° SSW 23:31:21 68° ESE 23:37:42 10° NE
NOSS 3-3 (C) 3.8 23:25:50 10° SSW 23:31:28 67° ESE 23:37:48 10° NE
USA 307 3.7 23:29:04 10° NW 23:32:59 33° NNE 23:35:04 21° ENE
Cosmos 1400 Rocket 3.4 23:29:04 10° SSW 23:33:08 61° WNW 23:37:11 10° N
Feng Yun 1-1 Rocket 4.4 23:30:10 10° SSE 23:36:04 89° E 23:42:02 10° NNW
Cosmos 1825 3.2 23:33:26 10° NNE 23:36:35 25° ENE 23:37:06 24° E
ERS-2 3.8 23:33:41 10° N 23:37:02 35° WNW 23:40:22 10° SW
USA 308 3.7 23:34:02 10° NW 23:38:00 35° NNE 23:39:51 24° ENE
IRS-1C Rocket 4.0 23:32:49 10° SSE 23:38:04 76° ENE 23:43:21 10° N
COSMO-SKYMED 1 2.5 23:33:46 10° NNE 23:38:08 84° ESE 23:42:29 10° SSW
Cosmos 2369 3.8 23:32:40 10° S 23:38:12 55° ESE 23:43:47 10° NNE
GPS 2-04 Rocket1 4.0 23:35:43 10° SW 23:39:13 29° SSE 23:41:13 19° ESE
Helios 1A Rocket 3.0 23:37:49 10° SSE 23:41:50 54° ENE 23:45:51 10° N
OAO 2 Rocket 4.0 23:39:19 10° WSW 23:44:03 42° S 23:46:58 21° ESE
CSL-04 Rocket 4.3 23:40:21 10° SE 23:45:15 33° ENE 23:50:08 10° N
ATLAS 2AS CENTAUR R/B 3.9 23:39:55 10° NNW 23:45:55 25° NNE 23:48:38 20° ENE
CZ-4 R/B 4.3 23:41:52 10° SSE 23:46:01 73° ENE 23:50:10 10° N
CZ-2D R/B 3.1 23:42:25 10° SSE 23:46:11 68° ENE 23:49:59 10° N
Cosmos 1340 3.4 23:43:51 10° NNW 23:47:34 55° W 23:51:15 10° S
YAOGAN 1 2.8 23:43:45 10° SE 23:47:51 44° ENE 23:51:59 10° N
Cosmos 2227 Rocket 2.2 23:43:22 10° NNW 23:49:03 84° WSW 23:54:42 10° SSE
Cosmos 2263 Rocket 3.7 23:46:35 10° N 23:50:16 18° NE 23:50:16 18° NE
CZ-4 R/B 1.3 23:48:05 10° SSE 23:51:53 56° ENE 23:55:41 10° N
Cosmos 1812 Rocket 3.6 23:49:53 10° S 23:54:09 54° E 23:58:26 10° NNE
Okean O Rocket 4.3 23:52:46 10° SW 23:56:08 22° W 23:59:30 10° NW
